Weather Service Report


620 
ASUS44 KLUB 240710
RWRTX 
WEST TEXAS WEATHER ROUNDUP
NATIONAL WEATHER SERVICE LUBBOCK TX
200 AM CDT THU JUL 24 2014

NOTE: "FAIR" INDICATES FEW OR NO CLOUDS BELOW 12,000 FEET WITH NO
SIGNIFICANT WEATHER AND/OR OBSTRUCTIONS TO VISIBILITY.

TXZ004-006>008-010-012-014-016-OKZ002-240800-
TEXAS PANHANDLE/OKLAHOMA PANHANDLE
  
CITY           SKY/WX    TMP DP  RH WIND       PRES   REMARKS
AMARILLO       CLEAR     70  60  70 SW8       30.21F                  
BORGER         CLEAR     82  56  40 S12       30.17F                  
CANADIAN       PTCLDY    78  66  66 E3        30.13F                  
DALHART        CLEAR     69  60  73 S8        30.24F                  
DUMAS          CLEAR     73  59  62 S9        30.22S                  
GUYMON         CLEAR     75  63  66 SE3       30.16F                  
HEREFORD       CLEAR     71  65  80 S6        30.24F                  
PAMPA          CLEAR     71  59  65 SE6       30.19F                  
PERRYTON       PTCLDY    76  68  77 SE9       30.16F                  
$$

TXZ026-029-035-045-048-240800-
SOUTHERN PANHANDLE/SOUTH PLAINS/ROLLING PLAINS
  
CITY           SKY/WX    TMP DP  RH WIND       PRES   REMARKS
CHILDRESS      PTCLDY    78  67  68 S6        30.12S                  
SEMINOLE       CLEAR     75  53  45 E3        30.21S                  
LUBBOCK        PTCLDY    74  62  66 SE7       30.20F                  
PLAINVIEW      CLEAR     70  64  80 S5        30.20F                  
SNYDER         MOCLDY    80  62  54 E5        30.15S                  
$$

TXZ052-054-060>062-072-078-127-140-154-169-240800-
PERMIAN BASIN/CONCHO VALLEY/BIG COUNTRY/EDWARDS PLATEAU  
  
CITY           SKY/WX    TMP DP  RH WIND       PRES   REMARKS
ABILENE        MOCLDY    78  65  63 S7        30.10F                  
BIG SPRING     MOCLDY    79  56  45 E5        30.17S                  
BRADY          CLEAR     77  64  65 S5        30.08F                  
BROWNWOOD      MOCLDY    77  66  69 SE3       30.07F                  
JUNCTION       PTCLDY    80  65  59 E5        30.10F                  
MIDLAND        CLEAR     79  60  52 SE6       30.15S                  
ODESSA         CLEAR     81  58  45 SE6       30.17S                  
SAN ANGELO     PTCLDY    80  64  58 E7        30.10S                  
SONORA         MOCLDY    82  63  51 E6        30.16R                  
SWEETWATER     MOCLDY    81  62  53 SE8       30.17F                  
WINK           CLEAR     79  62  56 E5        30.13S                  
$$

TXZ055-058-074-075-080-082-240800-
FAR WEST/SOUTHWEST MOUNTAINS/TRANS PECOS
  
CITY           SKY/WX    TMP DP  RH WIND       PRES   REMARKS
ALPINE         PTCLDY    70  57  62 CALM      30.30F                  
DRYDEN           N/A     85  60  42 NE6       30.08S                  
EL PASO        CLEAR     81  50  33 SE5       30.18S                  
FORT STOCKTON  PTCLDY    80  56  43 SE7       30.15S                  
GUADALUPE PASS CLEAR     72  49  44 NE14      30.34S                  
MARFA          CLEAR     68  54  60 NE7       30.29F                  
PECOS          CLEAR     77  54  44 E5        30.12S                  
PRESIDIO       FAIR      84  52  33 NE7       30.11F                  
$$

TXZ014-016-019-021>030-083-240800
TEXAS TECH WEST TEXAS MESONET/TEXAS PANHANDLE/NORTHERN SOUTH PLAINS
  
CITY           SKY/WX    TMP DP  RH WIND       PRES   REMARKS
ABERNATHY 5ENE   N/A     71  62  75 SE5       30.21F                  
AMHERST 1NE      N/A     71  62  73 SE5       30.23F                  
BOOTLEG 11WNW    N/A     68  61  79 S6        30.30F                  
CANADIAN 6E      N/A     73  67  79 E5        30.12F                  
CAPROCK CYN SP   N/A     76  64  65 S9        30.16S                  
CHILDRESS 2NNE   N/A     81  67  61 S7        30.10F                  
DIMMITT 2NE      N/A     69  61  75 S8        30.24F                  
FLOYDADA 2NNE    N/A     71  64  76 S7        30.19F                  
FRIONA 2NE       N/A     70  60  70 S7        30.26F                  
GOODLETT 3W      N/A     80  67  64 S6        30.08F                  
HART 3N          N/A     70  62  76 SE5       30.23F                  
HEREFORD 2NW     N/A     71  60  69 S7        30.24F                  
MCLEAN 1E        N/A     75  64  68 E5        30.15F                  
MEMPHIS 1NE      N/A     76  68  75 NW1       30.11F                  
MULESHOE 2SSW    N/A     69  60  70 S5        30.24F                  
OLTON 6S         N/A     69  61  77 SE7       30.21F                  
PALO DURO SP     N/A     74  62  65 S6        30.22F                  
PAMPA 2E         N/A     71  62  74 SE6       30.18F                  
PLAINVIEW 1S     N/A     74  64  71 S5        30.20F                  
SILVERTON 7ESE   N/A     70  63  79 S6        30.19S                  
TULIA 2ENE       N/A     71  63  77 S8        30.21F                  
TURKEY 2WSW      N/A     77  65  67 S8        30.13F                  
$$

TXZ033>036-039>041-045>048-240800
TEXAS TECH WEST TEXAS MESONET/SOUTH PLAINS  
  
CITY           SKY/WX    TMP DP  RH WIND       PRES   REMARKS
AIKEN 3WSW       N/A     69  65  86 S7        30.21S                  
ANDREWS 2NE      N/A     78  52  40 SE3       30.19S                  
ANTON 6SSW       N/A     70  60  70 E2        30.21F                  
BROWNFIELD 2S    N/A     73  56  55 E5        30.20F                  
GAIL 2ESE        N/A     79  60  51 SE2       30.14S                  
LAMESA 2SE       N/A     75  56  51 E3        30.18S                  
LEVELLAND 4S     N/A     71  61  69 E3        30.22S                  
LUBBOCK 3WNW     N/A     78  60  53 SE6       30.20F                  
MORTON 1ENE      N/A     73  58  60 E3        30.23F                  
ODONNELL 1N      N/A     76  56  50 SE2       30.18F                  
PLAINS 3N        N/A     74  57  56 E7        30.23S                  
RALLS 1SE        N/A     73  64  74 SE6       30.20F                  
REESE CENTER     N/A     78  60  52 SE8       30.21S                  
SEMINOLE 2NNE    N/A     73  54  51 NE6       30.20S                  
SLATON 2NE       N/A     76  62  62 E5        30.19F                  
SNYDER 3E        N/A     80  62  55 E9        30.14S                  
SUNDOWN 8SW      N/A     71  58  62 E6        30.22F                  
TAHOKA 3NNE      N/A     72  58  60 E7        30.18F                  
WOLFFORTH 6SSW   N/A     72  59  63 E5        30.21S                  
$$

TXZ031-032-036>038-042>044-240800-
TEXAS TECH WEST TEXAS MESONET/ROLLING PLAINS 
  
CITY           SKY/WX    TMP DP  RH WIND       PRES   REMARKS
ASPERMONT 3NE    N/A     80  65  60 SE5       30.10F                  
FLUVANNA 3WNW    N/A     79  59  50 E7        30.16S                  
GRAHAM 5SSW      N/A     81  57  43 SE5       30.17S                  
HASKELL 1NW      N/A     79  65  63 S2        30.08S                  
JAYTON 1SSE      N/A     79  66  64 SE8       30.12S                  
KNOX CITY 3NW    N/A     80  65  60 S7        30.07F                  
LK A HENRY 1NW   N/A     80  63  55 E5        30.14R                  
NORTHFIELD 1S    N/A     79  67  66 S6        30.11F                  
ODELL 4ENE       N/A     80  72  77 E5        30.08S                  
PADUCAH 10SW     N/A     76  67  72 S8        30.11F                  
POST 1NE         N/A     80  59  48 S1        30.15F                  
RRING SPRGS 3N   N/A     74  65  74 S7        30.16S                  
SEYMOUR 3NW      N/A     81  67  62 S3        30.06S                  
SPUR 1W          N/A     74  65  73 NW5       30.13F                  
WEINERT 2NNE     N/A     79  68  69 SW5       30.08F                  
WHITE RVR 6NE    N/A     78  63  60 E5        30.16F                  
$$

TXZ052-054-060>062-072-078-127-140-154-169-240800-
TEXAS TECH WEST TEXAS MESONET/PERMIAN BASIN/
CONCHO VALLEY/BIG COUNTRY/EDWARDS PLATEAU
  
CITY           SKY/WX    TMP DP  RH WIND       PRES   REMARKS
COYANOSA 2N      N/A     79  55  43 E6        30.12F                  
JUNCTION 1SSW    N/A     80  66  62 S2        30.09F                  
MERTZON 3NNE     N/A     77  63  61 NE1       30.13S                  
SAN ANGELO 7NW   N/A     78  62  58 E6        30.11F                  
STRLNG CT 4WSW   N/A     80  62  54 E7        30.14S                  
ST LAWRNCE 5SW   N/A     74  56  54 E7        30.15S                  
SWEETWATR 11SW   N/A     78  63  59 SE9       30.15F                  
WALL 1E          N/A     79  62  55 SE6       30.11F                  
$$

TXZ055-058-074-075-080-082-240800-
TEXAS TECH WEST TEXAS MESONET/FAR WEST/SOUTHWEST MOUNTAINS/TRANS PECOS
  
CITY           SKY/WX    TMP DP  RH WIND       PRES   REMARKS
PRSMN GAP BBNP   N/A     82  53  36 NE7       30.12S                  
$$

Return to Home page


Western Regional Climate Center, wrcc@dri.edu